Location: Bieujac
(44.5398°N, 0.1549°W)
Time: 23:56:35
(UTC+00:00)

COSMOS 2455 - Pass Details

Date: 17 November 2019
Orbit: 902 x 908 km, 67.1° (Epoch: 07 December)

Event Time Altitude Azimuth Distance (km) Brightness Sun altitude
Exits shadow 04:40:31 24° 341° (NNW) 1,778 4.1 -24.6°
Maximum altitude 04:44:09 63° 55° (NE) 1,013 3.2 -23.9°
Drops below altitude 10° 04:50:06 10° 136° (SE) 2,582 5.8 -22.9°
Sets 04:52:37 0° 140° (SE) 3,518 6.6 -22.4°
